| time (UTC) | temp F | wind direction | speed MPH | gust MPH | rain 1hr in | rain 24hr in | rain mn in | humidity % | barometer mb |
| 20260508000821 | 96 | 223 | 2.0 | 7.0 | 0.00 | 0.00 | 0.00 | 8 | 1008.6 |
| 20260507235811 | 96 | 262 | 1.0 | 9.0 | 0.00 | 0.00 | 0.00 | 8 | 1008.7 |
| 20260507234845 | 95 | 215 | 2.0 | 6.0 | 0.00 | 0.00 | 0.00 | 8 | 1008.6 |
| 20260507233822 | 95 | 222 | 3.0 | 10.0 | 0.00 | 0.00 | 0.00 | 8 | 1008.7 |
| 20260507232814 | 95 | 210 | 2.0 | 8.0 | 0.00 | 0.00 | 0.00 | 8 | 1008.8 |
| 20260507231827 | 96 | 233 | 1.0 | 4.0 | 0.00 | 0.00 | 0.00 | 9 | 1008.8 |
| 20260507230821 | 95 | 292 | 1.0 | 6.0 | 0.00 | 0.00 | 0.00 | 9 | 1008.9 |
| 20260507225818 | 95 | 109 | 2.0 | 6.0 | 0.00 | 0.00 | 0.00 | 9 | 1008.9 |
| 20260507224831 | 95 | 230 | 1.0 | 4.0 | 0.00 | 0.00 | 0.00 | 9 | 1009.2 |
| 20260507223825 | 94 | 201 | 4.0 | 11.0 | 0.00 | 0.00 | 0.00 | 9 | 1009.4 |
| 20260507222838 | 95 | 242 | 5.0 | 10.0 | 0.00 | 0.00 | 0.00 | 8 | 1009.4 |
| 20260507221829 | 94 | 23 | 2.0 | 6.0 | 0.00 | 0.00 | 0.00 | 9 | 1009.5 |
| 20260507220843 | 94 | 208 | 2.0 | 7.0 | 0.00 | 0.00 | 0.00 | 9 | 1009.6 |
| 20260507215817 | 94 | 235 | 4.0 | 6.0 | 0.00 | 0.00 | 0.00 | 10 | 1009.8 |
| 20260507214828 | 94 | 186 | 3.0 | 8.0 | 0.00 | 0.00 | 0.00 | 9 | 1010.0 |
| 20260507213820 | 94 | 214 | 1.0 | 8.0 | 0.00 | 0.00 | 0.00 | 10 | 1010.1 |
| 20260507212814 | 94 | 248 | 3.0 | 6.0 | 0.00 | 0.00 | 0.00 | 10 | 1010.3 |
| 20260507211827 | 95 | 283 | 3.0 | 11.0 | 0.00 | 0.00 | 0.00 | 10 | 1010.4 |
| 20260507210825 | 94 | 222 | 2.0 | 6.0 | 0.00 | 0.00 | 0.00 | 11 | 1010.6 |
| 20260507205838 | 93 | 75 | 3.0 | 7.0 | 0.00 | 0.00 | 0.00 | 10 | 1010.7 |
| 20260507204831 | 93 | 154 | 1.0 | 4.0 | 0.00 | 0.00 | 0.00 | 11 | 1010.8 |
| 20260507203824 | 92 | 68 | 2.0 | 4.0 | 0.00 | 0.00 | 0.00 | 10 | 1011.0 |
| 20260507202839 | 91 | 110 | 2.0 | 8.0 | 0.00 | 0.00 | 0.00 | 10 | 1011.1 |
| 20260507201814 | 91 | 226 | 4.0 | 7.0 | 0.00 | 0.00 | 0.00 | 11 | 1011.2 |
| 20260507200829 | 92 | 276 | 0.0 | 5.0 | 0.00 | 0.00 | 0.00 | 11 | 1011.3 |
| 20260507195819 | 91 | 108 | 3.0 | 7.0 | 0.00 | 0.00 | 0.00 | 11 | 1011.6 |
| 20260507194831 | 92 | 283 | 2.0 | 6.0 | 0.00 | 0.00 | 0.00 | 11 | 1011.8 |
| 20260507193824 | 92 | 173 | 0.0 | 3.0 | 0.00 | 0.00 | 0.00 | 12 | 1011.9 |
| 20260507192838 | 91 | 171 | 2.0 | 7.0 | 0.00 | 0.00 | 0.00 | 11 | 1012.1 |
| 20260507191813 | 90 | 85 | 3.0 | 7.0 | 0.00 | 0.00 | 0.00 | 12 | 1012.3 |
| 20260507190826 | 90 | 135 | 4.0 | 6.0 | 0.00 | 0.00 | 0.00 | 12 | 1012.4 |
| 20260507185818 | 89 | 87 | 3.0 | 8.0 | 0.00 | 0.00 | 0.00 | 12 | 1012.5 |
| 20260507184852 | 89 | 71 | 1.0 | 5.0 | 0.00 | 0.00 | 0.00 | 12 | 1012.7 |
| 20260507183843 | 89 | 131 | 1.0 | 6.0 | 0.00 | 0.00 | 0.00 | 14 | 1012.8 |
| 20260507182837 | 88 | 145 | 2.0 | 8.0 | 0.00 | 0.00 | 0.00 | 13 | 1012.9 |
| 20260507181812 | 88 | 41 | 6.0 | 10.0 | 0.00 | 0.00 | 0.00 | 14 | 1013.0 |
| 20260507180826 | 87 | 312 | 0.0 | 7.0 | 0.00 | 0.00 | 0.00 | 16 | 1013.2 |
| 20260507175819 | 86 | 164 | 1.0 | 4.0 | 0.00 | 0.00 | 0.00 | 17 | 1013.3 |
| 20260507174852 | 86 | 137 | 0.0 | 3.0 | 0.00 | 0.00 | 0.00 | 17 | 1013.4 |
| 20260507173824 | 87 | 86 | 2.0 | 6.0 | 0.00 | 0.00 | 0.00 | 17 | 1013.6 |
| 20260507172818 | 86 | 118 | 1.0 | 3.0 | 0.00 | 0.00 | 0.00 | 19 | 1013.7 |
| 20260507171812 | 85 | 106 | 1.0 | 5.0 | 0.00 | 0.00 | 0.00 | 19 | 1013.8 |
| 20260507170826 | 84 | 88 | 1.0 | 4.0 | 0.00 | 0.00 | 0.00 | 19 | 1013.8 |
| 20260507165818 | 83 | 62 | 1.0 | 4.0 | 0.00 | 0.00 | 0.00 | 21 | 1013.9 |
| 20260507164832 | 83 | 102 | 0.0 | 3.0 | 0.00 | 0.00 | 0.00 | 22 | 1014.0 |
| 20260507163826 | 82 | 156 | 2.0 | 4.0 | 0.00 | 0.00 | 0.00 | 22 | 1014.0 |
| 20260507162822 | 82 | 107 | 2.0 | 4.0 | 0.00 | 0.00 | 0.00 | 22 | 1014.1 |
| 20260507161816 | 81 | 33 | 1.0 | 3.0 | 0.00 | 0.00 | 0.00 | 23 | 1014.1 |
| 20260507160831 | 80 | 266 | 1.0 | 2.0 | 0.00 | 0.00 | 0.00 | 26 | 1014.2 |
| 20260507155824 | 79 | 187 | 0.0 | 3.0 | 0.00 | 0.00 | 0.00 | 26 | 1014.3 |
| 20260507154837 | 78 | 170 | 1.0 | 3.0 | 0.00 | 0.00 | 0.00 | 27 | 1014.4 |
| 20260507153853 | 78 | 164 | 0.0 | 2.0 | 0.00 | 0.00 | 0.00 | 30 | 1014.5 |
| 20260507152826 | 77 | 106 | 1.0 | 6.0 | 0.00 | 0.00 | 0.00 | 31 | 1014.4 |
| 20260507151820 | 76 | 160 | 1.0 | 4.0 | 0.00 | 0.00 | 0.00 | 32 | 1014.4 |
| 20260507150813 | 75 | 93 | 2.0 | 8.0 | 0.00 | 0.00 | 0.00 | 33 | 1014.4 |
| 20260507145827 | 75 | 62 | 2.0 | 7.0 | 0.00 | 0.00 | 0.00 | 31 | 1014.4 |
| 20260507144822 | 75 | 81 | 2.0 | 6.0 | 0.00 | 0.00 | 0.00 | 32 | 1014.3 |
| 20260507143853 | 74 | 44 | 3.0 | 6.0 | 0.00 | 0.00 | 0.00 | 31 | 1014.3 |
| 20260507142827 | 73 | 26 | 2.0 | 5.0 | 0.00 | 0.00 | 0.00 | 31 | 1014.3 |
| 20260507141818 | 72 | 39 | 1.0 | 3.0 | 0.00 | 0.00 | 0.00 | 32 | 1014.2 |
| 20260507140831 | 72 | 91 | 1.0 | 2.0 | 0.00 | 0.00 | 0.00 | 33 | 1014.2 |
| 20260507135825 | 72 | 89 | 1.0 | 3.0 | 0.00 | 0.00 | 0.00 | 33 | 1014.2 |
| 20260507134821 | 71 | 64 | 0.0 | 1.0 | 0.00 | 0.00 | 0.00 | 34 | 1014.1 |
| 20260507133814 | 71 | 83 | 0.0 | 1.0 | 0.00 | 0.00 | 0.00 | 33 | 1014.0 |
| 20260507132826 | 70 | 91 | 1.0 | 6.0 | 0.00 | 0.00 | 0.00 | 33 | 1014.0 |
| 20260507131821 | 71 | 21 | 3.0 | 9.0 | 0.00 | 0.00 | 0.00 | 31 | 1013.8 |
| 20260507130818 | 69 | 16 | 4.0 | 11.0 | 0.00 | 0.00 | 0.00 | 33 | 1013.5 |
| 20260507125813 | 68 | 358 | 3.0 | 9.0 | 0.00 | 0.00 | 0.00 | 33 | 1013.7 |
| 20260507124826 | 68 | 356 | 2.0 | 6.0 | 0.00 | 0.00 | 0.00 | 34 | 1013.7 |
| 20260507123819 | 68 | 4 | 3.0 | 5.0 | 0.00 | 0.00 | 0.00 | 33 | 1013.7 |
| 20260507122852 | 68 | 359 | 2.0 | 6.0 | 0.00 | 0.00 | 0.00 | 33 | 1013.6 |
| 20260507121824 | 68 | 336 | 2.0 | 4.0 | 0.00 | 0.00 | 0.00 | 33 | 1013.6 |
| 20260507120821 | 69 | 71 | 2.0 | 5.0 | 0.00 | 0.00 | 0.00 | 32 | 1013.7 |
| 20260507115815 | 69 | 357 | 4.0 | 8.0 | 0.00 | 0.00 | 0.00 | 32 | 1013.7 |
| 20260507114825 | 69 | 22 | 3.0 | 7.0 | 0.00 | 0.00 | 0.00 | 32 | 1013.7 |
| 20260507113818 | 69 | 357 | 1.0 | 5.0 | 0.00 | 0.00 | 0.00 | 32 | 1013.7 |
| 20260507112832 | 69 | 2 | 3.0 | 6.0 | 0.00 | 0.00 | 0.00 | 32 | 1013.5 |
| 20260507111829 | 69 | 23 | 1.0 | 4.0 | 0.00 | 0.00 | 0.00 | 32 | 1013.5 |
| 20260507110824 | 68 | 27 | 2.0 | 5.0 | 0.00 | 0.00 | 0.00 | 33 | 1013.6 |
| 20260507105817 | 68 | 5 | 1.0 | 3.0 | 0.00 | 0.00 | 0.00 | 34 | 1013.7 |
| 20260507104829 | 68 | 4 | 2.0 | 6.0 | 0.00 | 0.00 | 0.00 | 34 | 1013.8 |
| 20260507103823 | 68 | 351 | 2.0 | 4.0 | 0.00 | 0.00 | 0.00 | 34 | 1013.9 |
| 20260507102818 | 68 | 358 | 0.0 | 2.0 | 0.00 | 0.00 | 0.00 | 35 | 1013.9 |
| 20260507101852 | 68 | 357 | 1.0 | 3.0 | 0.00 | 0.00 | 0.00 | 34 | 1014.0 |
| 20260507100825 | 67 | 2 | 0.0 | 1.0 | 0.00 | 0.00 | 0.00 | 35 | 1014.1 |
| 20260507095817 | 66 | 1 | 0.0 | 1.0 | 0.00 | 0.00 | 0.00 | 36 | 1014.1 |
| 20260507094830 | 67 | 1 | 0.0 | 1.0 | 0.00 | 0.00 | 0.00 | 36 | 1014.3 |
| 20260507093826 | 68 | 3 | 0.0 | 0.0 | 0.00 | 0.00 | 0.00 | 35 | 1014.3 |
| 20260507092819 | 69 | 3 | 0.0 | 1.0 | 0.00 | 0.00 | 0.00 | 33 | 1014.3 |
| 20260507091815 | 70 | 5 | 0.0 | 3.0 | 0.00 | 0.00 | 0.00 | 33 | 1014.3 |
| 20260507090829 | 70 | 6 | 1.0 | 3.0 | 0.00 | 0.00 | 0.00 | 32 | 1014.3 |
| 20260507085843 | 70 | 351 | 2.0 | 6.0 | 0.00 | 0.00 | 0.00 | 32 | 1014.3 |
| 20260507084821 | 70 | 360 | 2.0 | 5.0 | 0.00 | 0.00 | 0.00 | 32 | 1014.4 |
| 20260507083835 | 71 | 16 | 2.0 | 4.0 | 0.00 | 0.00 | 0.00 | 32 | 1014.5 |
| 20260507082829 | 71 | 360 | 1.0 | 5.0 | 0.00 | 0.00 | 0.00 | 32 | 1014.5 |
| 20260507081822 | 71 | 7 | 1.0 | 3.0 | 0.00 | 0.00 | 0.00 | 32 | 1014.5 |
| 20260507080814 | 70 | 356 | 0.0 | 3.0 | 0.00 | 0.00 | 0.00 | 33 | 1014.6 |
| 20260507075832 | 70 | 343 | 0.0 | 1.0 | 0.00 | 0.00 | 0.00 | 34 | 1014.7 |
| 20260507074827 | 69 | 343 | 0.0 | 0.0 | 0.00 | 0.00 | 0.00 | 36 | 1014.7 |
| 20260507073819 | 69 | 343 | 0.0 | 0.0 | 0.00 | 0.00 | 0.00 | 36 | 1014.7 |
| 20260507072834 | 70 | 343 | 0.0 | 0.0 | 0.00 | 0.00 | 0.00 | 34 | 1014.7 |
| 20260507071828 | 71 | 343 | 0.0 | 0.0 | 0.00 | 0.00 | 0.00 | 33 | 1014.6 |
| 20260507070840 | 71 | 342 | 0.0 | 0.0 | 0.00 | 0.00 | 0.00 | 32 | 1014.6 |
| 20260507065816 | 72 | 358 | 0.0 | 2.0 | 0.00 | 0.00 | 0.00 | 31 | 1014.6 |
| 20260507064848 | 73 | 1 | 1.0 | 2.0 | 0.00 | 0.00 | 0.00 | 31 | 1014.5 |
| 20260507063819 | 72 | 287 | 0.0 | 1.0 | 0.00 | 0.00 | 0.00 | 30 | 1014.5 |
| 20260507062813 | 73 | 287 | 0.0 | 0.0 | 0.00 | 0.00 | 0.00 | 29 | 1014.4 |
| 20260507061827 | 73 | 287 | 0.0 | 0.0 | 0.00 | 0.00 | 0.00 | 29 | 1014.5 |
| 20260507060824 | 74 | 287 | 0.0 | 1.0 | 0.00 | 0.00 | 0.00 | 29 | 1014.5 |
| 20260507055815 | 74 | 287 | 0.0 | 1.0 | 0.00 | 0.00 | 0.00 | 28 | 1014.5 |
| 20260507054847 | 73 | 287 | 0.0 | 1.0 | 0.00 | 0.00 | 0.00 | 29 | 1014.4 |
| 20260507053840 | 73 | 208 | 0.0 | 0.0 | 0.00 | 0.00 | 0.00 | 31 | 1014.5 |
| 20260507052832 | 72 | 208 | 0.0 | 0.0 | 0.00 | 0.00 | 0.00 | 30 | 1014.5 |
| 20260507051824 | 73 | 208 | 0.0 | 0.0 | 0.00 | 0.00 | 0.00 | 30 | 1014.6 |
| 20260507050824 | 74 | 208 | 0.0 | 0.0 | 0.00 | 0.00 | 0.00 | 30 | 1014.5 |
| 20260507045818 | 74 | 208 | 0.0 | 0.0 | 0.00 | 0.00 | 0.00 | 29 | 1014.3 |
| 20260507044830 | 72 | 208 | 0.0 | 0.0 | 0.00 | 0.00 | 0.00 | 31 | 1014.3 |
| 20260507043824 | 73 | 208 | 0.0 | 0.0 | 0.00 | 0.00 | 0.00 | 30 | 1014.2 |
| 20260507042816 | 74 | 209 | 0.0 | 0.0 | 0.00 | 0.00 | 0.00 | 29 | 1014.2 |
| 20260507041813 | 74 | 209 | 0.0 | 0.0 | 0.00 | 0.00 | 0.00 | 28 | 1014.1 |
| 20260507040825 | 75 | 208 | 0.0 | 0.0 | 0.00 | 0.00 | 0.00 | 27 | 1014.0 |
| 20260507035819 | 76 | 209 | 0.0 | 0.0 | 0.00 | 0.00 | 0.00 | 26 | 1013.8 |
| 20260507034852 | 77 | 208 | 0.0 | 0.0 | 0.00 | 0.00 | 0.00 | 25 | 1013.7 |
| 20260507033825 | 77 | 208 | 0.0 | 1.0 | 0.00 | 0.00 | 0.00 | 25 | 1013.6 |
| 20260507032823 | 78 | 206 | 0.0 | 0.0 | 0.00 | 0.00 | 0.00 | 24 | 1013.5 |
| 20260507031819 | 78 | 206 | 0.0 | 1.0 | 0.00 | 0.00 | 0.00 | 24 | 1013.4 |
| 20260507030812 | 79 | 192 | 0.0 | 2.0 | 0.00 | 0.00 | 0.00 | 23 | 1013.2 |
| 20260507025825 | 79 | 204 | 1.0 | 2.0 | 0.00 | 0.00 | 0.00 | 23 | 1013.1 |
| 20260507024837 | 79 | 214 | 1.0 | 2.0 | 0.00 | 0.00 | 0.00 | 23 | 1013.1 |
| 20260507023812 | 80 | 221 | 0.0 | 2.0 | 0.00 | 0.00 | 0.00 | 23 | 1012.9 |
| 20260507022825 | 80 | 225 | 1.0 | 1.0 | 0.00 | 0.00 | 0.00 | 22 | 1012.8 |
| 20260507021818 | 81 | 221 | 1.0 | 2.0 | 0.00 | 0.00 | 0.00 | 22 | 1012.7 |
| 20260507020831 | 81 | 231 | 0.0 | 3.0 | 0.00 | 0.00 | 0.00 | 22 | 1012.6 |
| 20260507015844 | 81 | 215 | 0.0 | 1.0 | 0.00 | 0.00 | 0.00 | 22 | 1012.6 |
| 20260507014820 | 82 | 223 | 2.0 | 3.0 | 0.00 | 0.00 | 0.00 | 21 | 1012.5 |
| 20260507013812 | 82 | 232 | 2.0 | 7.0 | 0.00 | 0.00 | 0.00 | 21 | 1012.5 |
| 20260507012826 | 84 | 231 | 2.0 | 4.0 | 0.00 | 0.00 | 0.00 | 20 | 1012.6 |
| 20260507011818 | 84 | 229 | 2.0 | 6.0 | 0.00 | 0.00 | 0.00 | 20 | 1012.5 |
| 20260507010831 | 85 | 229 | 0.0 | 4.0 | 0.00 | 0.00 | 0.00 | 20 | 1012.6 |
| 20260507005827 | 85 | 284 | 1.0 | 6.0 | 0.00 | 0.00 | 0.00 | 20 | 1012.5 |
| 20260507004819 | 84 | 227 | 3.0 | 7.0 | 0.00 | 0.00 | 0.00 | 20 | 1012.5 |
| 20260507003831 | 85 | 344 | 0.0 | 3.0 | 0.00 | 0.00 | 0.00 | 20 | 1012.5 |
| 20260507002823 | 84 | 356 | 1.0 | 4.0 | 0.00 | 0.00 | 0.00 | 21 | 1012.4 |
| 20260507001838 | 84 | 203 | 3.0 | 9.0 | 0.00 | 0.00 | 0.00 | 21 | 1012.4 |